Weather in Michurinskiy

Russia / Penza Oblast     53°06′29″N   44°55′22″E
temp.,
°C
wind,
m/s
gust,
m/s
humid.,
%
clouds,
%
prec.,
mm/h
press.,
hPa
HPBL,
m
14 may, fri
fri1400:00+14ese2292100 0.2 101832
03:00+14se229190 0.2 101814
06:00+16se2289100 0.0 101860
09:00+20s23732 0.0 1018425
12:00+24s34565 0.0 10181204
15:00+25sse35495 0.0 10181340
18:00+23se487287 0.0 1017224
21:00+18se368082 0.0 101784
15 may, sat
sat1500:00+17se3777100 0.0 1016104
03:00+16sse4156840 0.0 1016300
06:00+16sse5156688 0.0 1017313
09:00+22s71554100 0.0 1017611
12:00+25sse71249100 0.0 10171048
15:00+25sse712505 0.0 10161220
18:00+22sse5126179 0.0 1016349
21:00+17sse411655 0.0 1016155
16 may, sun
sun1600:00+16sse4106061 0.0 1015136
03:00+14sse366361 0.0 101680
06:00+15s3971100 0.0 1016195
09:00+22s585234 0.0 1016421
12:00+25s6942100 0.0 1017995
15:00+26ssw594540 0.0 10161557
18:00+23s3460100 0.0 101665
21:00+18sse2266100 0.0 101611
17 may, mon
mon1700:00+17ese2262100 0.0 101611
03:00+16ese226363 0.0 101611
06:00+18se2366100 0.0 101753
09:00+24sse51055100 0.0 1017554
12:00+26sse61040100 0.0 10171114
15:00+27sse594485 0.0 10161212
18:00+23se3760100 0.0 1015130
21:00+19se336197 0.0 101647
18 may, tue
tue1800:00+17ese345586 0.0 101654
03:00+16ese4115497 0.0 1015161
06:00+16se4126599 0.0 1015207
09:00+22se5953100 0.0 1014364
12:00+26se5840100 0.0 1013597
15:00+27se7114797 0.0 10131014
18:00+24se38615 0.0 1012215
21:00+19ese4125991 0.0 1012172